Location: Gensac
(43.2177°N, 1.1313°E)
Time: 14:58:00
(UTC+00:00)

NOSS 3-1 (A) - Pass Details

Date: 08 December 2025
Orbit: 613 x 1593 km, 63.4° (Epoch: 10 January)

Event Time Altitude Azimuth Distance (km) Brightness Sun altitude
Exits shadow 06:25:11 - 321° (NW) 3,319 5.7 -8.9°
Reaches altitude 10° 06:26:04 10° 321° (NW) 3,019 5.5 -8.7°
Maximum altitude 06:33:29 77° 237° (WSW) 1,365 4.2 -7.5°
Drops below altitude 10° 06:42:36 10° 154° (SSE) 3,665 7.4 -6.0°
Sets 06:45:48 0° 153° (SSE) 4,712 8.0 -5.5°
